Weather in Las Terrenas

Dominican Republic     19°18′47″N   69°32′33″W
temp.,
°C
wind,
m/s
gust,
m/s
humid.,
%
clouds,
%
prec.,
mm/h
press.,
hPa
HPBL,
m
21 june, mon
mon2123:00+25e378720 0.8 1020390
02:00+25e378942 2.3 1018413
05:00+25e378915 2.0 1018313
08:00+26e488680 4.7 1019624
11:00+30ese56636 0.6 1019987
14:00+30e5660100 1.0 10171046
17:00+27e5876100 0.6 1017731
20:00+26e4886100 0.8 1018632
22 june, tue
tue2223:00+25e4885100 0.1 1019652
02:00+25e389188 0.2 1017505
05:00+24e369138 0.3 1017306
08:00+26e4780100 1.1 1018691
11:00+29ese476398 0.8 10191035
14:00+30e565999 0.9 10181049
17:00+28e577199 0.0 1017890
20:00+25e4884100 0.1 1018605
23 june, wed
wed2323:00+25e488685 0.1 1019537
02:00+24e488719 0.4 1017504
05:00+24e3690100 0.6 1017303
08:00+26e367833 1.3 1018741
11:00+29e356280 0.1 10181175
14:00+27e4675100 1.8 1018960
17:00+26ene4680100 1.0 1016698
20:00+24e368998 1.4 1017331
24 june, thu
thu2423:00+24e3791100 0.1 1017393
02:00+23e378899 0.6 1016339
05:00+23e248990 0.0 1016185
08:00+25e258493 2.4 1017517
11:00+28e356710 1.4 10171114
14:00+29e456416 2.0 10151191
17:00+28e456740 0.3 1014973
20:00+25e378654 0.8 1015318
25 june, fri
fri2523:00+24e37886 1.4 1016353
02:00+24e369121 2.3 1015310
05:00+23e3692100 2.9 1014270
08:00+25e2688100 4.7 1015441
11:00+29ese3460100 0.1 10151171
14:00+30e455873 0.1 10141286
17:00+28e566840 0.2 1013835
20:00+24e488855 1.8 1015407